CW1020 Weather Reports


time (UTC)temp
C
wind
direction
speed
KPH
gust
KPH
rain 1hr
cm
rain 24hr
cm
rain mn
cm
humidity
%
barometer
mb
20260505041503 8 304 3.2 16.1 0.00 0.00 0.00 72 1013.9
20260505041003 8 307 1.6 11.3 0.00 0.00 0.00 72 1013.9
20260505040503 8 308 3.2 6.4 0.00 0.00 0.00 72 1013.9
20260505040004 8 271 4.8 6.4 0.00 0.00 0.00 73 1014.0
20260505035503 8 306 3.2 8.0 0.00 0.00 0.00 73 1013.9
20260505035003 8 287 4.8 9.7 0.00 0.00 0.00 73 1013.9
20260505034503 8 307 6.4 8.0 0.00 0.00 0.00 73 1013.9
20260505034003 8 276 8.0 9.7 0.00 0.00 0.00 72 1013.8
20260505033503 8 265 9.7 12.9 0.00 0.00 0.00 72 1013.8
20260505033004 8 270 11.3 16.1 0.00 0.00 0.00 73 1013.8
20260505032503 8 281 11.3 16.1 0.00 0.00 0.00 73 1013.7
20260505032003 8 295 12.9 16.1 0.00 0.00 0.00 72 1013.6
20260505031003 9 285 12.9 24.1 0.00 0.00 0.00 72 1013.4
20260505030503 9 294 14.5 19.3 0.00 0.00 0.00 72 1013.4
20260505030004 9 299 16.1 22.5 0.00 0.00 0.00 71 1013.4
20260505025503 9 302 16.1 25.7 0.00 0.00 0.00 71 1013.3
20260505025004 9 310 14.5 24.1 0.00 0.00 0.00 71 1013.3
20260505024503 9 311 14.5 24.1 0.00 0.00 0.00 70 1013.3
20260505024003 9 301 14.5 20.9 0.00 0.00 0.00 70 1013.3
20260505023503 10 295 12.9 27.4 0.00 0.00 0.00 71 1013.4
20260505023003 10 303 11.3 17.7 0.00 0.00 0.00 71 1013.4
20260505022503 10 308 11.3 17.7 0.00 0.00 0.00 71 1013.4
20260505022003 10 298 12.9 16.1 0.00 0.00 0.00 70 1013.4
20260505021503 10 293 12.9 20.9 0.00 0.00 0.00 70 1013.4
20260505021003 10 286 12.9 19.3 0.00 0.00 0.00 70 1013.5
20260505020504 10 300 12.9 19.3 0.00 0.00 0.00 69 1013.3
20260505020003 10 289 12.9 14.5 0.00 0.00 0.00 69 1013.4
20260505015504 10 308 14.5 20.9 0.00 0.00 0.00 69 1013.4
20260505015003 10 294 12.9 20.9 0.00 0.00 0.00 69 1013.3
20260505014503 10 307 11.3 20.9 0.00 0.00 0.00 69 1013.4
20260505014004 10 304 12.9 17.7 0.00 0.00 0.00 69 1013.4
20260505013503 10 320 11.3 20.9 0.00 0.00 0.00 68 1013.4
20260505013004 10 315 8.0 19.3 0.00 0.00 0.00 67 1013.3
20260505011004 11 316 12.9 22.5 0.00 0.00 0.00 64 1013.2
20260505010503 11 274 12.9 20.9 0.00 0.00 0.00 65 1013.3
20260505005503 11 302 14.5 20.9 0.00 0.00 0.00 62 1013.4
20260505005004 11 308 16.1 22.5 0.00 0.00 0.00 65 1013.4
20260505004503 11 313 16.1 25.7 0.00 0.00 0.00 67 1013.6
20260505004003 11 314 14.5 25.7 0.00 0.00 0.00 67 1013.6
20260505003503 11 320 16.1 27.4 0.00 0.00 0.00 66 1013.6
20260505002503 11 315 16.1 27.4 0.00 0.00 0.00 65 1013.6
20260505002003 11 290 16.1 25.7 0.00 0.00 0.00 65 1013.6
20260505001503 11 313 14.5 29.0 0.00 0.00 0.00 65 1013.4
20260505001004 11 297 12.9 20.9 0.00 0.00 0.00 63 1013.5
20260505000503 11 284 14.5 29.0 0.00 0.00 0.00 62 1013.6
20260505000004 11 309 14.5 17.7 0.00 0.00 0.00 63 1013.5
20260504235503 11 264 19.3 22.5 0.00 0.00 0.00 63 1013.6
20260504235004 11 287 19.3 25.7 0.00 0.00 0.00 62 1013.7
20260504234503 11 275 16.1 29.0 0.00 0.00 0.00 62 1013.7
20260504234003 11 275 14.5 19.3 0.00 0.00 0.00 63 1013.6
20260504233004 11 290 14.5 16.1 0.00 0.00 0.00 64 1013.8
20260504232503 11 317 14.5 30.6 0.00 0.00 0.00 63 1013.6
20260504232003 11 289 16.1 17.7 0.00 0.00 0.00 63 1013.8
20260504231004 11 309 12.9 22.5 0.00 0.00 0.00 62 1013.7
20260504225503 11 282 12.9 30.6 0.00 0.00 0.00 61 1013.8
20260504224503 11 287 14.5 30.6 0.00 0.00 0.00 60 1013.9
20260504224003 11 276 16.1 24.1 0.00 0.00 0.00 59 1013.9
20260504223504 11 273 17.7 20.9 0.00 0.00 0.00 60 1013.9
20260504223003 11 282 16.1 27.4 0.00 0.00 0.00 60 1013.9
20260504222504 11 302 16.1 29.0 0.00 0.00 0.00 62 1014.0
20260504222004 11 295 16.1 22.5 0.00 0.00 0.00 63 1014.1
20260504221503 11 298 14.5 19.3 0.00 0.00 0.00 62 1014.0
20260504220004 11 314 19.3 27.4 0.00 0.00 0.00 62 1014.2
20260504215003 11 320 14.5 27.4 0.00 0.00 0.00 63 1014.2
20260504214504 11 311 11.3 27.4 0.00 0.00 0.00 64 1014.4
20260504214003 11 317 12.9 16.1 0.00 0.00 0.00 64 1014.5
20260504213503 10 313 14.5 17.7 0.00 0.00 0.00 69 1014.6
20260504213004 10 307 12.9 22.5 0.00 0.00 0.00 71 1014.8
20260504212502 10 304 12.9 19.3 0.00 0.00 0.00 71 1014.8
20260504211502 9 314 16.1 27.4 0.00 0.00 0.00 73 1015.0
20260504210003 9 311 14.5 25.7 0.00 0.00 0.00 74 1015.0
20260504205502 9 310 16.1 20.9 0.00 0.00 0.00 73 1015.0
20260504205003 9 311 16.1 19.3 0.00 0.00 0.00 74 1014.9
20260504204503 9 311 14.5 22.5 0.00 0.00 0.00 74 1014.8
20260504204002 9 317 14.5 24.1 0.00 0.00 0.00 74 1014.9
20260504203502 9 317 16.1 19.3 0.00 0.00 0.00 75 1014.9
20260504203002 9 319 14.5 24.1 0.00 0.00 0.00 76 1014.8
20260504202502 9 317 14.5 22.5 0.00 0.00 0.00 75 1014.8
20260504202002 9 313 12.9 25.7 0.00 0.00 0.00 75 1014.7
20260504201502 9 322 11.3 17.7 0.00 0.00 0.00 76 1014.7
20260504201002 9 309 9.7 14.5 0.00 0.00 0.00 76 1014.7
20260504200502 8 314 8.0 14.5 0.00 0.00 0.00 77 1014.8
20260504200003 8 316 8.0 14.5 0.00 0.00 0.00 79 1015.1
20260504195502 8 296 11.3 12.9 0.00 0.00 0.00 78 1015.3
20260504195002 8 290 12.9 16.1 0.00 0.00 0.00 80 1015.3
20260504194503 8 292 16.1 17.7 0.00 0.00 0.00 80 1015.3
20260504194002 8 284 16.1 22.5 0.00 0.00 0.00 79 1015.2
20260504193502 8 264 16.1 20.9 0.00 0.00 0.00 79 1015.4
20260504193002 8 266 14.5 25.7 0.00 0.00 0.00 80 1015.4
20260504192003 7 247 14.5 22.5 0.00 0.00 0.00 83 1015.3
20260504191503 7 276 9.7 17.7 0.00 0.00 0.00 84 1015.4
20260504190502 7 257 8.0 14.5 0.00 0.00 0.00 82 1015.4
20260504190003 7 301 12.9 9.7 0.00 0.00 0.00 81 1015.4
20260504185502 7 266 12.9 24.1 0.00 0.00 0.00 79 1015.4
20260504185002 7 254 12.9 17.7 0.00 0.00 0.00 79 1015.3
20260504184503 7 257 12.9 19.3 0.00 0.00 0.00 79 1015.4
20260504184002 7 245 12.9 22.5 0.00 0.00 0.00 80 1015.3
20260504183003 7 255 11.3 24.1 0.00 0.00 0.00 79 1015.2
20260504182502 7 231 12.9 19.3 0.00 0.00 0.00 80 1015.3
20260504181503 7 242 12.9 22.5 0.00 0.00 0.00 79 1015.2
20260504180502 7 259 9.7 12.9 0.00 0.00 0.00 80 1015.2
20260504180004 7 257 11.3 11.3 0.00 0.00 0.00 79 1015.3
20260504175502 7 268 9.7 22.5 0.00 0.00 0.00 80 1015.3
20260504175003 7 256 8.0 17.7 0.00 0.00 0.00 80 1015.4
20260504174502 7 273 4.8 14.5 0.00 0.00 0.00 80 1015.5
20260504173502 7 285 9.7 11.3 0.00 0.00 0.00 80 1015.2
20260504173003 7 261 9.7 16.1 0.00 0.00 0.00 80 1015.1
20260504172502 7 240 11.3 14.5 0.00 0.00 0.00 80 1015.1
20260504172003 7 251 11.3 19.3 0.00 0.00 0.00 80 1015.1
20260504171502 7 252 8.0 19.3 0.00 0.00 0.00 80 1015.0
20260504171003 7 254 8.0 16.1 0.00 0.00 0.00 81 1014.9
20260504170503 6 261 11.3 14.5 0.00 0.00 0.00 81 1014.9
20260504151003 6 314 11.3 22.5 0.00 0.00 0.00 83 1014.9
20260504150502 6 321 8.0 20.9 0.00 0.00 0.00 83 1014.9
20260504141003 5 308 11.3 19.3 0.00 0.00 0.00 82 1014.5
20260504140502 6 316 11.3 19.3 0.00 0.00 0.00 82 1014.5
20260504130502 6 307 8.0 14.5 0.00 0.00 0.00 79 1014.0
20260504100503 7 299 4.8 11.3 0.00 0.00 0.00 78 1014.0
20260504082003 7 311 16.1 22.5 0.00 0.00 0.00 77 1014.3
20260504081502 7 316 14.5 24.1 0.00 0.00 0.00 76 1014.3
20260504081003 7 314 14.5 25.7 0.00 0.00 0.00 76 1014.4
20260504080504 7 315 12.9 20.9 0.00 0.00 0.00 76 1014.5
20260504050504 9 303 8.0 6.4 0.00 0.00 0.00 72 1014.3
20260504050005 10 310 6.4 14.5 0.00 0.00 0.00 72 1014.1
20260504045503 10 321 3.2 14.5 0.00 0.00 0.00 71 1014.0